map of DNK home
Great Circle Mapper logo
DNK - Airport
Location
City:  Dnepropetrovsk, Ukraine
Name:Dnepropetrovsk International Airport
ICAO / IATA:UKDD / DNK

Details
Type:Airport (Aerodrome, Airfield)
Use:International (customs port of entry)
Latitude:4821'26"N (48.357222)
Longitude:3506'02"E (35.100556)
Datum:WGS 1984
Elevation:481 ft (147 m)
Variation:7.56E (WMM2015 magnetic declination)
0.11 annual change
Runways:1
Longest:9320 × 144 ft (2841 × 44 m), paved

Time
Time Zone:UTC+2 (DST+3)
Local Time:

Weather
METAR:UKDD 181430Z 29003MPS 250V350 9999 SCT030 BKN100 11/06 Q1004 26210370 NOSIG
TAF:UKDD 181105Z 1812/1912 34006MPS 9999 BKN010
TEMPO 1812/1815 3100 -SHRA SCT005 BKN015CB
BECMG 1816/1818 30005MPS
TEMPO 1900/1912 29009G14MPS 2100 -SHRA BKN005 BKN015CB TX12/1912Z TN03/1902Z

Related Locations
Nearby:
Farthest:CHT: 10902 mi / 17545 km
Waitangi [Tuuta], Chatham Islands, NZ

Find:

   beyond  
but within

Other Information
Maps:
NOTAMs:
Links:
Sources:

  
flag of Ukraine   

Sectional Chart

Flight Planning
at skyvector.com

Satellite Image

Google Maps Satellite View

 

Copyright © 2004-2015 Karl L. Swartz. All rights reserved.
The Great Circle Mapper name and logo are trademarks of the Great Circle Mapper.
All other trademarks mentioned herein belong to their respective owners.
Please see credits for attibutions and further copyright information.

  Follow gcmap on Facebook Follow gcmap on Twitter Follow gcmap on Google+

hCard Microformat

Geo Microformat